Hauptseite
METAR-TAF:

METAR-TAF

Flughäfen :

Glücksburg, Deutschland

Meierwik

Breite: 54-50N, Länge: 009-30E, Höhe: 27 m

Beobachtung

Neuester Wetterbericht von vor 25 Minuten, um 10:20 UTC
Wind 13 kt aus Ost, Böen bis zu 24 kt
Temperatur 15°C
Luftfeuchtigkeit 88%
Luftdruck 1027 hPa
Sichtweite 10 km oder mehr
Durchbrochene Bewölkung in der Höhe von 1500 ft

METAR: ETGG 261020Z 10013G24KT 9999 BKN015 15/13 Q1027 WHT

Zeit: 12:45 (10:45 UTC)


TAF: fehlend

Wetterbeobachtungen und Prognosen von mehr als 4000 Flughäfen (METAR und TAF Bericht).

Die verfügbaren Stationen werden durch gelbe und rote Markierungen auf der Karte dargestellt.

Führen Sie die Maus auf sie, um den Namen der Station zu sehen.

Darauf klicken, um die Beobachtung von Wetterbeobachtungen und Prognosen zu sehen.

Um die Karte zu ändern : klicken Sie auf den grünen Tasten mit einem schwarzen Kreuz Zum Vergrößern, auf den grünen Button mit einem Gedankenstrich zu verkleinern, oder auf die grünen Pfeile für benachbarte Karten.


METAR-TAF: